Location: Hains Lake
(37.8540°N, 99.8578°W)
Time: 22:26:55
(UTC+00:00)

Explorer 7 - Pass Details

Date: 27 April 2021
Orbit: 484 x 677 km, 50.3° (Epoch: 13 May)

Event Time Altitude Azimuth Distance (km) Brightness Sun altitude
Rises 05:05:48 0° 311° (NW) 2,733 11.3 -34.0°
Reaches altitude 10° 05:08:08 10° 321° (NW) 1,870 10.3 -34.2°
Enters shadow 05:09:33 19° 332° (NNW) 1,409 9.5 -34.3°
